Overview Statistics Trail Chart Weather Telemetry Raw packets
 

This is the latest recevied weather packets stored in our database for station/object N0OQA. If no packets are shown the sender has not sent any weather packets the latest 10 day(s).

<< 13 14 15 16 17 18 19 >>
Time Temp. Humidity Pressure Rain* Wind** Luminosity Snow
1788495378 24.44° C 81% 1011.4 hPa 0 mm - - -
1788494477 25° C 79% 1011.4 hPa 0 mm - - -
1788493876 25° C 78% 1011.4 hPa 0 mm - - -
1788493576 25° C 77% 1011.4 hPa 0 mm - - -
1788493276 25° C 77% 1011.4 hPa 0 mm - - -
1788492975 25.56° C 76% 1011.4 hPa 0 mm - - -
1788492675 25.56° C 74% 1011.4 hPa 0 mm - - -
1788492074 26.11° C 72% 1011.5 hPa 0 mm - - -
1788491474 26.67° C 71% 1011.4 hPa 0 mm - - -
1788491174 26.67° C 71% 1011.3 hPa 0 mm - - -
1788489970 27.22° C 69% 1011.1 hPa 0 mm - - -
1788489369 26.67° C 68% 1011 hPa 0 mm - - -
1788489069 27.22° C 68% 1010.9 hPa 0 mm - - -
1788488769 26.67° C 68% 1011 hPa 0 mm - - -
1788488468 27.22° C 68% 1010.9 hPa 0 mm - - -
1788488168 27.22° C 68% 1011 hPa 0 mm - - -
1788487868 27.22° C 67% 1010.9 hPa 0 mm - - -
1788486667 27.22° C 67% 1010.9 hPa 0 mm - - -
1788486066 27.22° C 66% 1010.8 hPa 0 mm - - -
1788485466 27.22° C 66% 1010.8 hPa 0 mm - - -
1788484865 27.78° C 65% 1010.6 hPa 0 mm - - -
1788483664 28.33° C 63% 1010.4 hPa 0 mm - - -
1788482463 28.33° C 61% 1010.4 hPa 0 mm - - -
1788481861 28.89° C 60% 1010.4 hPa 0 mm - - -
1788481561 28.89° C 60% 1010.1 hPa 0 mm - - -

* Rain since midnight (hover to see other rain measurements)
** Current wind speed in m/s (hover to see current wind gust speed)